Year,Month,Day,Hour,Minute,Value (Times are PST for temperature in C)
2013,12,15,00,00,6.80
2013,12,15,00,01,6.90
2013,12,15,00,02,6.90
2013,12,15,00,03,6.90
2013,12,15,00,04,6.90
2013,12,15,00,05,6.90
2013,12,15,00,06,6.90
2013,12,15,00,07,6.90
2013,12,15,00,08,6.90
2013,12,15,00,09,6.90
2013,12,15,00,10,6.90
2013,12,15,00,11,6.90
2013,12,15,00,12,6.90
2013,12,15,00,13,6.90
2013,12,15,00,14,6.90
2013,12,15,00,15,6.90
2013,12,15,00,16,6.90
2013,12,15,00,17,6.90
2013,12,15,00,18,6.90
2013,12,15,00,19,7.00
2013,12,15,00,20,7.00
2013,12,15,00,21,7.00
2013,12,15,00,22,7.00
2013,12,15,00,23,7.00
2013,12,15,00,24,7.10
2013,12,15,00,25,7.10
2013,12,15,00,26,7.10
2013,12,15,00,27,7.10
2013,12,15,00,28,7.10
2013,12,15,00,29,7.10
2013,12,15,00,30,7.10
2013,12,15,00,31,7.10
2013,12,15,00,32,7.10
2013,12,15,00,33,7.10
2013,12,15,00,34,7.10
2013,12,15,00,35,7.10
2013,12,15,00,36,7.20
2013,12,15,00,37,7.10
2013,12,15,00,38,7.10
2013,12,15,00,39,7.20
2013,12,15,00,40,7.20
2013,12,15,00,41,7.20
2013,12,15,00,42,7.20
2013,12,15,00,43,7.20
2013,12,15,00,44,7.20
2013,12,15,00,45,7.20
2013,12,15,00,46,7.20
2013,12,15,00,47,7.20
2013,12,15,00,48,7.20
2013,12,15,00,49,7.20
2013,12,15,00,50,7.20
2013,12,15,00,51,7.20
2013,12,15,00,52,7.20
2013,12,15,00,53,7.20
2013,12,15,00,54,7.20
2013,12,15,00,55,7.20
2013,12,15,00,56,7.20
2013,12,15,00,57,7.20
2013,12,15,00,58,7.20
2013,12,15,00,59,7.20
2013,12,15,01,00,7.20
2013,12,15,01,01,7.20
2013,12,15,01,02,7.20
2013,12,15,01,03,7.20
2013,12,15,01,04,7.20
2013,12,15,01,05,7.20
2013,12,15,01,06,7.20
2013,12,15,01,07,7.20
2013,12,15,01,08,7.20
2013,12,15,01,09,7.20
2013,12,15,01,10,7.20
2013,12,15,01,11,7.20
2013,12,15,01,12,7.20
2013,12,15,01,13,7.10
2013,12,15,01,14,7.10
2013,12,15,01,15,7.10
2013,12,15,01,16,7.10
2013,12,15,01,17,7.10
2013,12,15,01,18,7.10
2013,12,15,01,19,7.10
2013,12,15,01,20,7.10
2013,12,15,01,21,7.10
2013,12,15,01,22,7.10
2013,12,15,01,23,7.10
2013,12,15,01,24,7.10
2013,12,15,01,25,7.10
2013,12,15,01,26,7.10
2013,12,15,01,27,7.10
2013,12,15,01,28,7.10
2013,12,15,01,29,7.10
2013,12,15,01,30,7.10
2013,12,15,01,31,7.00
2013,12,15,01,32,7.00
2013,12,15,01,33,7.00
2013,12,15,01,34,7.00
2013,12,15,01,35,7.00
2013,12,15,01,36,7.00
2013,12,15,01,37,7.00
2013,12,15,01,38,7.00
2013,12,15,01,39,7.00
2013,12,15,01,40,7.00
2013,12,15,01,41,7.10
2013,12,15,01,42,7.10
2013,12,15,01,43,7.10
2013,12,15,01,44,7.10
2013,12,15,01,45,7.10
2013,12,15,01,46,7.10
2013,12,15,01,47,7.10
2013,12,15,01,48,7.10
2013,12,15,01,49,7.10
2013,12,15,01,50,7.10
2013,12,15,01,51,7.10
2013,12,15,01,52,7.10
2013,12,15,01,53,7.10
2013,12,15,01,54,7.10
2013,12,15,01,55,7.10
2013,12,15,01,56,7.10
2013,12,15,01,57,7.10
2013,12,15,01,58,7.10
2013,12,15,01,59,7.10
2013,12,15,02,00,7.10
2013,12,15,02,01,7.10
2013,12,15,02,02,7.10
2013,12,15,02,03,7.10
2013,12,15,02,04,7.10
2013,12,15,02,05,7.10
2013,12,15,02,06,7.10
2013,12,15,02,07,7.10
2013,12,15,02,08,7.10
2013,12,15,02,09,7.10
2013,12,15,02,10,7.10
2013,12,15,02,11,7.10
2013,12,15,02,12,7.10
2013,12,15,02,13,7.10
2013,12,15,02,14,7.10
2013,12,15,02,15,7.10
2013,12,15,02,16,7.10
2013,12,15,02,17,7.10
2013,12,15,02,18,7.00
2013,12,15,02,19,7.00
2013,12,15,02,20,7.00
2013,12,15,02,21,7.00
2013,12,15,02,22,7.00
2013,12,15,02,23,7.00
2013,12,15,02,24,7.00
2013,12,15,02,25,7.00
2013,12,15,02,26,7.00
2013,12,15,02,27,7.00
2013,12,15,02,28,7.00
2013,12,15,02,29,7.00
2013,12,15,02,30,7.00
2013,12,15,02,31,7.00
2013,12,15,02,32,7.00
2013,12,15,02,33,7.00
2013,12,15,02,34,7.00
2013,12,15,02,35,7.00
2013,12,15,02,36,7.10
2013,12,15,02,37,7.10
2013,12,15,02,38,7.10
2013,12,15,02,39,7.10
2013,12,15,02,40,7.10
2013,12,15,02,41,7.10
2013,12,15,02,42,7.10
2013,12,15,02,43,7.10
2013,12,15,02,44,7.10
2013,12,15,02,45,7.10
2013,12,15,02,46,7.10
2013,12,15,02,47,7.10
2013,12,15,02,48,7.10
2013,12,15,02,49,7.10
2013,12,15,02,50,7.10
2013,12,15,02,51,7.10
2013,12,15,02,52,7.10
2013,12,15,02,53,7.10
2013,12,15,02,54,7.10
2013,12,15,02,55,7.10
2013,12,15,02,56,7.10
2013,12,15,02,57,7.10
2013,12,15,02,58,7.00
2013,12,15,02,59,7.00
2013,12,15,03,00,7.00
2013,12,15,03,01,7.00
2013,12,15,03,02,7.00
2013,12,15,03,03,7.00
2013,12,15,03,04,7.00
2013,12,15,03,05,7.00
2013,12,15,03,06,7.00
2013,12,15,03,07,7.00
2013,12,15,03,08,7.00
2013,12,15,03,09,7.00
2013,12,15,03,10,7.00
2013,12,15,03,11,7.00
2013,12,15,03,12,7.00
2013,12,15,03,13,7.00
2013,12,15,03,14,7.00
2013,12,15,03,15,7.00
2013,12,15,03,16,7.00
2013,12,15,03,17,7.00
2013,12,15,03,18,7.10
2013,12,15,03,19,7.10
2013,12,15,03,20,7.10
2013,12,15,03,21,7.10
2013,12,15,03,22,7.10
2013,12,15,03,23,7.10
2013,12,15,03,24,7.10
2013,12,15,03,25,7.10
2013,12,15,03,26,7.10
2013,12,15,03,27,7.10
2013,12,15,03,28,7.10
2013,12,15,03,29,7.10
2013,12,15,03,30,7.10
2013,12,15,03,31,7.10
2013,12,15,03,32,7.10
2013,12,15,03,33,7.10
2013,12,15,03,34,7.10
2013,12,15,03,35,7.10
2013,12,15,03,36,7.00
2013,12,15,03,37,7.00
2013,12,15,03,38,7.00
2013,12,15,03,39,6.90
2013,12,15,03,40,6.90
2013,12,15,03,41,6.90
2013,12,15,03,42,6.90
2013,12,15,03,43,6.90
2013,12,15,03,44,7.00
2013,12,15,03,45,7.00
2013,12,15,03,46,7.00
2013,12,15,03,47,7.00
2013,12,15,03,48,7.00
2013,12,15,03,49,7.00
2013,12,15,03,50,7.10
2013,12,15,03,51,7.10
2013,12,15,03,52,7.10
2013,12,15,03,53,7.10
2013,12,15,03,54,7.10
2013,12,15,03,55,7.10
2013,12,15,03,56,7.10
2013,12,15,03,57,7.10
2013,12,15,03,58,7.10
2013,12,15,03,59,7.10
2013,12,15,04,00,7.10
2013,12,15,04,01,7.10
2013,12,15,04,02,7.10
2013,12,15,04,03,7.10
2013,12,15,04,04,7.10
2013,12,15,04,05,7.10
2013,12,15,04,06,7.10
2013,12,15,04,07,7.10
2013,12,15,04,08,7.10
2013,12,15,04,09,7.10
2013,12,15,04,10,7.10
2013,12,15,04,11,7.10
2013,12,15,04,12,7.10
2013,12,15,04,13,7.10
2013,12,15,04,14,7.00
2013,12,15,04,15,7.00
2013,12,15,04,16,6.90
2013,12,15,04,17,6.80
2013,12,15,04,18,6.80
2013,12,15,04,19,6.80
2013,12,15,04,20,6.70
2013,12,15,04,21,6.70
2013,12,15,04,22,6.70
2013,12,15,04,23,6.70
2013,12,15,04,24,6.70
2013,12,15,04,25,6.70
2013,12,15,04,26,6.70
2013,12,15,04,27,6.70
2013,12,15,04,28,6.70
2013,12,15,04,29,6.80
2013,12,15,04,30,6.80
2013,12,15,04,31,6.80
2013,12,15,04,32,6.80
2013,12,15,04,33,6.90
2013,12,15,04,34,6.90
2013,12,15,04,35,6.90
2013,12,15,04,36,7.00
2013,12,15,04,37,7.00
2013,12,15,04,38,7.00
2013,12,15,04,39,7.10
2013,12,15,04,40,7.10
2013,12,15,04,41,7.10
2013,12,15,04,42,7.10
2013,12,15,04,43,7.10
2013,12,15,04,44,7.10
2013,12,15,04,45,7.10
2013,12,15,04,46,7.10
2013,12,15,04,47,7.10
2013,12,15,04,48,7.10
2013,12,15,04,49,7.10
2013,12,15,04,50,7.10
2013,12,15,04,51,7.10
2013,12,15,04,52,7.10
2013,12,15,04,53,7.10
2013,12,15,04,54,7.10
2013,12,15,04,55,7.00
2013,12,15,04,56,6.90
2013,12,15,04,57,6.90
2013,12,15,04,58,6.90
2013,12,15,04,59,6.80
2013,12,15,05,00,6.80
2013,12,15,05,01,6.80
2013,12,15,05,02,6.80
2013,12,15,05,03,6.80
2013,12,15,05,04,6.80
2013,12,15,05,05,6.80
2013,12,15,05,06,6.80
2013,12,15,05,07,6.80
2013,12,15,05,08,6.70
2013,12,15,05,09,6.70
2013,12,15,05,10,6.70
2013,12,15,05,11,6.70
2013,12,15,05,12,6.60
2013,12,15,05,13,6.60
2013,12,15,05,14,6.60
2013,12,15,05,15,6.60
2013,12,15,05,16,6.50
2013,12,15,05,17,6.50
2013,12,15,05,18,6.50
2013,12,15,05,19,6.40
2013,12,15,05,20,6.40
2013,12,15,05,21,6.40
2013,12,15,05,22,6.40
2013,12,15,05,23,6.40
2013,12,15,05,24,6.40
2013,12,15,05,25,6.40
2013,12,15,05,26,6.40
2013,12,15,05,27,6.50
2013,12,15,05,28,6.50
2013,12,15,05,29,6.60
2013,12,15,05,30,6.60
2013,12,15,05,31,6.60
2013,12,15,05,32,6.70
2013,12,15,05,33,6.70
2013,12,15,05,34,6.70
2013,12,15,05,35,6.70
2013,12,15,05,36,6.70
2013,12,15,05,37,6.70
2013,12,15,05,38,6.70
2013,12,15,05,39,6.70
2013,12,15,05,40,6.70
2013,12,15,05,41,6.70
2013,12,15,05,42,6.70
2013,12,15,05,43,6.60
2013,12,15,05,44,6.60
2013,12,15,05,45,6.60
2013,12,15,05,46,6.60
2013,12,15,05,47,6.60
2013,12,15,05,48,6.60
2013,12,15,05,49,6.60
2013,12,15,05,50,6.60
2013,12,15,05,51,6.60
2013,12,15,05,52,6.60
2013,12,15,05,53,6.60
2013,12,15,05,54,6.50
2013,12,15,05,55,6.50
2013,12,15,05,56,6.50
2013,12,15,05,57,6.40
2013,12,15,05,58,6.40
2013,12,15,05,59,6.40
2013,12,15,06,00,6.40
2013,12,15,06,01,6.40
2013,12,15,06,02,6.40
2013,12,15,06,03,6.40
2013,12,15,06,04,6.30
2013,12,15,06,05,6.30
2013,12,15,06,06,6.30
2013,12,15,06,07,6.20
2013,12,15,06,08,6.20
2013,12,15,06,09,6.10
2013,12,15,06,10,6.10
2013,12,15,06,11,6.10
2013,12,15,06,12,6.00
2013,12,15,06,13,6.00
2013,12,15,06,14,5.90
2013,12,15,06,15,5.90
2013,12,15,06,16,5.90
2013,12,15,06,17,5.90
2013,12,15,06,18,5.90
2013,12,15,06,19,5.80
2013,12,15,06,20,5.80
2013,12,15,06,21,5.80
2013,12,15,06,22,5.80
2013,12,15,06,23,5.80
2013,12,15,06,24,5.80
2013,12,15,06,25,5.80
2013,12,15,06,26,5.80
2013,12,15,06,27,5.80
2013,12,15,06,28,5.80
2013,12,15,06,29,5.80
2013,12,15,06,30,5.80
2013,12,15,06,31,5.80
2013,12,15,06,32,5.80
2013,12,15,06,33,5.80
2013,12,15,06,34,5.80
2013,12,15,06,35,5.80
2013,12,15,06,36,5.80
2013,12,15,06,37,5.90
2013,12,15,06,38,5.90
2013,12,15,06,39,5.90
2013,12,15,06,40,5.90
2013,12,15,06,41,5.80
2013,12,15,06,42,5.80
2013,12,15,06,43,5.80
2013,12,15,06,44,5.80
2013,12,15,06,45,5.80
2013,12,15,06,46,5.80
2013,12,15,06,47,5.80
2013,12,15,06,48,5.80
2013,12,15,06,49,5.80
2013,12,15,06,50,5.80
2013,12,15,06,51,5.80
2013,12,15,06,52,5.80
2013,12,15,06,53,5.90
2013,12,15,06,54,5.90
2013,12,15,06,55,5.90
2013,12,15,06,56,5.80
2013,12,15,06,57,5.80
2013,12,15,06,58,5.80
2013,12,15,06,59,5.80
2013,12,15,07,00,5.80
2013,12,15,07,01,5.90
2013,12,15,07,02,5.90
2013,12,15,07,03,5.90
2013,12,15,07,04,5.90
2013,12,15,07,05,5.90
2013,12,15,07,06,5.80
2013,12,15,07,07,5.80
2013,12,15,07,08,5.80
2013,12,15,07,09,5.80
2013,12,15,07,10,5.80
2013,12,15,07,11,5.80
2013,12,15,07,12,5.80
2013,12,15,07,13,5.80
2013,12,15,07,14,5.80
2013,12,15,07,15,5.80
2013,12,15,07,16,5.80
2013,12,15,07,17,5.80
2013,12,15,07,18,5.80
2013,12,15,07,19,5.80
2013,12,15,07,20,5.80
2013,12,15,07,21,5.80
2013,12,15,07,22,5.80
2013,12,15,07,23,5.80
2013,12,15,07,24,5.70
2013,12,15,07,25,5.70
2013,12,15,07,26,5.70
2013,12,15,07,27,5.70
2013,12,15,07,28,5.70
2013,12,15,07,29,5.70
2013,12,15,07,30,5.70
2013,12,15,07,31,5.70
2013,12,15,07,32,5.70
2013,12,15,07,33,5.70
2013,12,15,07,34,5.70
2013,12,15,07,35,5.70
2013,12,15,07,36,5.70
2013,12,15,07,37,5.70
2013,12,15,07,38,5.70
2013,12,15,07,39,5.70
2013,12,15,07,40,5.70
2013,12,15,07,41,5.70
2013,12,15,07,42,5.60
2013,12,15,07,43,5.60
2013,12,15,07,44,5.60
2013,12,15,07,45,5.60
2013,12,15,07,46,5.60
2013,12,15,07,47,5.60
2013,12,15,07,48,5.60
2013,12,15,07,49,5.60
2013,12,15,07,50,5.60
2013,12,15,07,51,5.60
2013,12,15,07,52,5.60
2013,12,15,07,53,5.60
2013,12,15,07,54,5.60
2013,12,15,07,55,5.60
2013,12,15,07,56,5.60
2013,12,15,07,57,5.60
2013,12,15,07,58,5.70
2013,12,15,07,59,5.60
2013,12,15,08,00,5.70
2013,12,15,08,01,5.70
2013,12,15,08,02,5.70
2013,12,15,08,03,5.70
2013,12,15,08,04,5.70
2013,12,15,08,05,5.70
2013,12,15,08,06,5.70
2013,12,15,08,07,5.70
2013,12,15,08,08,5.70
2013,12,15,08,09,5.70
2013,12,15,08,10,5.70
2013,12,15,08,11,5.70
2013,12,15,08,12,5.70
2013,12,15,08,13,5.70
2013,12,15,08,14,5.70
2013,12,15,08,15,5.70
2013,12,15,08,16,5.70
2013,12,15,08,17,5.70
2013,12,15,08,18,5.70
2013,12,15,08,19,5.70
2013,12,15,08,20,5.70
2013,12,15,08,21,5.60
2013,12,15,08,22,5.60
2013,12,15,08,23,5.60
2013,12,15,08,24,5.60
2013,12,15,08,25,5.60
2013,12,15,08,26,5.60
2013,12,15,08,27,5.60
2013,12,15,08,28,5.60
2013,12,15,08,29,5.50
2013,12,15,08,30,5.50
2013,12,15,08,31,5.50
2013,12,15,08,32,5.40
2013,12,15,08,33,5.40
2013,12,15,08,34,5.40
2013,12,15,08,35,5.40
2013,12,15,08,36,5.40
2013,12,15,08,37,5.40
2013,12,15,08,38,5.40
2013,12,15,08,39,5.40
2013,12,15,08,40,5.40
2013,12,15,08,41,5.40
2013,12,15,08,42,5.40
2013,12,15,08,43,5.40
2013,12,15,08,44,5.40
2013,12,15,08,45,5.40
2013,12,15,08,46,5.40
2013,12,15,08,47,5.40
2013,12,15,08,48,5.40
2013,12,15,08,49,5.40
2013,12,15,08,50,5.40
2013,12,15,08,51,5.40
2013,12,15,08,52,5.40
2013,12,15,08,53,5.40
2013,12,15,08,54,5.40
2013,12,15,08,55,5.40
2013,12,15,08,56,5.40
2013,12,15,08,57,5.40
2013,12,15,08,58,5.40
2013,12,15,08,59,5.50
2013,12,15,09,00,5.50
2013,12,15,09,01,5.50
2013,12,15,09,02,5.50
2013,12,15,09,03,5.50
2013,12,15,09,04,5.50
2013,12,15,09,05,5.60
2013,12,15,09,06,5.60
2013,12,15,09,07,5.70
2013,12,15,09,08,5.70
2013,12,15,09,09,5.70
2013,12,15,09,10,5.80
2013,12,15,09,11,5.80
2013,12,15,09,12,5.80
2013,12,15,09,13,5.90
2013,12,15,09,14,5.90
2013,12,15,09,15,5.90
2013,12,15,09,16,5.80
2013,12,15,09,17,5.80
2013,12,15,09,18,5.80
2013,12,15,09,19,5.80
2013,12,15,09,20,5.80
2013,12,15,09,21,5.80
2013,12,15,09,22,5.80
2013,12,15,09,23,5.80
2013,12,15,09,24,5.70
2013,12,15,09,25,5.70
2013,12,15,09,26,5.70
2013,12,15,09,27,5.80
2013,12,15,09,28,5.80
2013,12,15,09,29,5.80
2013,12,15,09,30,5.80
2013,12,15,09,31,5.80
2013,12,15,09,32,5.80
2013,12,15,09,33,5.80
2013,12,15,09,34,5.80
2013,12,15,09,35,5.80
2013,12,15,09,36,5.80
2013,12,15,09,37,5.80
2013,12,15,09,38,5.80
2013,12,15,09,39,5.70
2013,12,15,09,40,5.70
2013,12,15,09,41,5.70
2013,12,15,09,42,5.70
2013,12,15,09,43,5.70
2013,12,15,09,44,5.70
2013,12,15,09,45,5.70
2013,12,15,09,46,5.70
2013,12,15,09,47,5.70
2013,12,15,09,48,5.70
2013,12,15,09,49,5.80
2013,12,15,09,50,5.80
2013,12,15,09,51,5.80
2013,12,15,09,52,5.80
2013,12,15,09,53,5.80
2013,12,15,09,54,5.80
2013,12,15,09,55,5.80
2013,12,15,09,56,5.80
2013,12,15,09,57,5.80
2013,12,15,09,58,5.80
2013,12,15,09,59,5.80
2013,12,15,10,00,5.90
2013,12,15,10,01,5.90
2013,12,15,10,02,5.90
2013,12,15,10,03,5.90
2013,12,15,10,04,6.00
2013,12,15,10,05,6.00
2013,12,15,10,06,6.10
2013,12,15,10,07,6.10
2013,12,15,10,08,6.10
2013,12,15,10,09,6.10
2013,12,15,10,10,6.10
2013,12,15,10,11,6.10
2013,12,15,10,12,6.10
2013,12,15,10,13,6.20
2013,12,15,10,14,6.20
2013,12,15,10,15,6.20
2013,12,15,10,16,6.10
2013,12,15,10,17,6.10
2013,12,15,10,18,6.10
2013,12,15,10,19,6.10
2013,12,15,10,20,6.20
2013,12,15,10,21,6.20
2013,12,15,10,22,6.20
2013,12,15,10,23,6.20
2013,12,15,10,24,6.20
2013,12,15,10,25,6.20
2013,12,15,10,26,6.20
2013,12,15,10,27,6.20
2013,12,15,10,28,6.20
2013,12,15,10,29,6.30
2013,12,15,10,30,6.30
2013,12,15,10,31,6.30
2013,12,15,10,32,6.30
2013,12,15,10,33,6.30
2013,12,15,10,34,6.40
2013,12,15,10,35,6.50
2013,12,15,10,36,6.50
2013,12,15,10,37,6.50
2013,12,15,10,38,6.50
2013,12,15,10,39,6.50
2013,12,15,10,40,6.50
2013,12,15,10,41,6.50
2013,12,15,10,42,6.50
2013,12,15,10,43,6.60
2013,12,15,10,44,6.60
2013,12,15,10,45,6.60
2013,12,15,10,46,6.70
2013,12,15,10,47,6.70
2013,12,15,10,48,6.70
2013,12,15,10,49,6.70
2013,12,15,10,50,6.70
2013,12,15,10,51,6.70
2013,12,15,10,52,6.70
2013,12,15,10,53,6.70
2013,12,15,10,54,6.70
2013,12,15,10,55,6.80
2013,12,15,10,56,6.80
2013,12,15,10,57,6.80
2013,12,15,10,58,6.80
2013,12,15,10,59,6.80
2013,12,15,11,00,6.80
2013,12,15,11,01,6.80
2013,12,15,11,02,6.80
2013,12,15,11,03,6.90
2013,12,15,11,04,6.90
2013,12,15,11,05,6.90
2013,12,15,11,06,6.90
2013,12,15,11,07,7.00
2013,12,15,11,08,7.10
2013,12,15,11,09,7.10
2013,12,15,11,10,7.10
2013,12,15,11,11,7.10
2013,12,15,11,12,7.10
2013,12,15,11,13,7.10
2013,12,15,11,14,7.10
2013,12,15,11,15,7.10
2013,12,15,11,16,7.10
2013,12,15,11,17,7.10
2013,12,15,11,18,7.10
2013,12,15,11,19,7.10
2013,12,15,11,20,7.10
2013,12,15,11,21,7.10
2013,12,15,11,22,7.10
2013,12,15,11,23,7.10
2013,12,15,11,24,7.10
2013,12,15,11,25,7.10
2013,12,15,11,26,7.10
2013,12,15,11,27,7.10
2013,12,15,11,28,7.20
2013,12,15,11,29,7.20
2013,12,15,11,30,7.20
2013,12,15,11,31,7.20
2013,12,15,11,32,7.20
2013,12,15,11,33,7.30
2013,12,15,11,34,7.30
2013,12,15,11,35,7.30
2013,12,15,11,36,7.30
2013,12,15,11,37,7.40
2013,12,15,11,38,7.40
2013,12,15,11,39,7.40
2013,12,15,11,40,7.40
2013,12,15,11,41,7.40
2013,12,15,11,42,7.50
2013,12,15,11,43,7.50
2013,12,15,11,44,7.60
2013,12,15,11,45,7.60
2013,12,15,11,46,7.60
2013,12,15,11,47,7.70
2013,12,15,11,48,7.70
2013,12,15,11,49,7.70
2013,12,15,11,50,7.70
2013,12,15,11,51,7.70
2013,12,15,11,52,7.80
2013,12,15,11,53,7.80
2013,12,15,11,54,7.80
2013,12,15,11,55,7.80
2013,12,15,11,56,7.80
2013,12,15,11,57,7.90
2013,12,15,11,58,7.90
2013,12,15,11,59,7.90
2013,12,15,12,00,7.90
2013,12,15,12,01,7.90
2013,12,15,12,02,8.00
2013,12,15,12,03,8.00
2013,12,15,12,04,8.00
2013,12,15,12,05,8.10
2013,12,15,12,06,8.10
2013,12,15,12,07,8.10
2013,12,15,12,08,8.20
2013,12,15,12,09,8.20
2013,12,15,12,10,8.20
2013,12,15,12,11,8.20
2013,12,15,12,12,8.30
2013,12,15,12,13,8.30
2013,12,15,12,14,8.30
2013,12,15,12,15,8.40
2013,12,15,12,16,8.40
2013,12,15,12,17,8.40
2013,12,15,12,18,8.40
2013,12,15,12,19,8.40
2013,12,15,12,20,8.40
2013,12,15,12,21,8.40
2013,12,15,12,22,8.40
2013,12,15,12,23,8.40
2013,12,15,12,24,8.50
2013,12,15,12,25,8.50
2013,12,15,12,26,8.50
2013,12,15,12,27,8.60
2013,12,15,12,28,8.60
2013,12,15,12,29,8.60
2013,12,15,12,30,8.60
2013,12,15,12,31,8.70
2013,12,15,12,32,8.70
2013,12,15,12,33,8.70
2013,12,15,12,34,8.70
2013,12,15,12,35,8.70
2013,12,15,12,36,8.80
2013,12,15,12,37,8.80
2013,12,15,12,38,8.80
2013,12,15,12,39,8.80
2013,12,15,12,40,8.80
2013,12,15,12,41,8.80
2013,12,15,12,42,8.90
2013,12,15,12,43,8.90
2013,12,15,12,44,8.80
2013,12,15,12,45,8.80
2013,12,15,12,46,8.80
2013,12,15,12,47,8.80
2013,12,15,12,48,8.90
2013,12,15,12,49,8.90
2013,12,15,12,50,8.90
2013,12,15,12,51,8.90
2013,12,15,12,52,8.90
2013,12,15,12,53,9.00
2013,12,15,12,54,9.00
2013,12,15,12,55,9.00
2013,12,15,12,56,9.10
2013,12,15,12,57,9.10
2013,12,15,12,58,9.20
2013,12,15,12,59,9.20
2013,12,15,13,00,9.20
2013,12,15,13,01,9.20
2013,12,15,13,02,9.30
2013,12,15,13,03,9.30
2013,12,15,13,04,9.30
2013,12,15,13,05,9.30
2013,12,15,13,06,9.40
2013,12,15,13,07,9.40
2013,12,15,13,08,9.40
2013,12,15,13,09,9.40
2013,12,15,13,10,9.50
2013,12,15,13,11,9.50
2013,12,15,13,12,9.50
2013,12,15,13,13,9.50
2013,12,15,13,14,9.50
2013,12,15,13,15,9.50
2013,12,15,13,16,9.50
2013,12,15,13,17,9.50
2013,12,15,13,18,9.50
2013,12,15,13,19,9.50
2013,12,15,13,20,9.50
2013,12,15,13,21,9.50
2013,12,15,13,22,9.50
2013,12,15,13,23,9.50
2013,12,15,13,24,9.50
2013,12,15,13,25,9.50
2013,12,15,13,26,9.50
2013,12,15,13,27,9.50
2013,12,15,13,28,9.50
2013,12,15,13,29,9.50
2013,12,15,13,30,9.50
2013,12,15,13,31,9.50
2013,12,15,13,32,9.40
2013,12,15,13,33,9.40
2013,12,15,13,34,9.40
2013,12,15,13,35,9.40
2013,12,15,13,36,9.40
2013,12,15,13,37,9.40
2013,12,15,13,38,9.40
2013,12,15,13,39,9.40
2013,12,15,13,40,9.40
2013,12,15,13,41,9.40
2013,12,15,13,42,9.30
2013,12,15,13,43,9.30
2013,12,15,13,44,9.30
2013,12,15,13,45,9.30
2013,12,15,13,46,9.30
2013,12,15,13,47,9.30
2013,12,15,13,48,9.30
2013,12,15,13,49,9.30
2013,12,15,13,50,9.30
2013,12,15,13,51,9.30
2013,12,15,13,52,9.30
2013,12,15,13,53,9.30
2013,12,15,13,54,9.30
2013,12,15,13,55,9.30
2013,12,15,13,56,9.30
2013,12,15,13,57,9.30
2013,12,15,13,58,9.30
2013,12,15,13,59,9.30
2013,12,15,14,00,9.30
2013,12,15,14,01,9.20
2013,12,15,14,02,9.20
2013,12,15,14,03,9.20
2013,12,15,14,04,9.20
2013,12,15,14,05,9.20
2013,12,15,14,06,9.20
2013,12,15,14,07,9.10
2013,12,15,14,08,9.10
2013,12,15,14,09,9.10
2013,12,15,14,10,9.10
2013,12,15,14,11,9.10
2013,12,15,14,12,9.10
2013,12,15,14,13,9.10
2013,12,15,14,14,9.10
2013,12,15,14,15,9.10
2013,12,15,14,16,9.10
2013,12,15,14,17,9.10
2013,12,15,14,18,9.00
2013,12,15,14,19,9.00
2013,12,15,14,20,9.00
2013,12,15,14,21,8.90
2013,12,15,14,22,8.90
2013,12,15,14,23,8.90
2013,12,15,14,24,8.90
2013,12,15,14,25,8.90
2013,12,15,14,26,8.90
2013,12,15,14,27,8.90
2013,12,15,14,28,8.90
2013,12,15,14,29,8.90
2013,12,15,14,30,8.90
2013,12,15,14,31,8.90
2013,12,15,14,32,8.80
2013,12,15,14,33,8.80
2013,12,15,14,34,8.80
2013,12,15,14,35,8.80
2013,12,15,14,36,8.80
2013,12,15,14,37,8.70
2013,12,15,14,38,8.70
2013,12,15,14,39,8.70
2013,12,15,14,40,8.70
2013,12,15,14,41,8.60
2013,12,15,14,42,8.60
2013,12,15,14,43,8.60
2013,12,15,14,44,8.50
2013,12,15,14,45,8.50
2013,12,15,14,46,8.50
2013,12,15,14,47,8.40
2013,12,15,14,48,8.40
2013,12,15,14,49,8.40
2013,12,15,14,50,8.30
2013,12,15,14,51,8.30
2013,12,15,14,52,8.20
2013,12,15,14,53,8.20
2013,12,15,14,54,8.20
2013,12,15,14,55,8.20
2013,12,15,14,56,8.10
2013,12,15,14,57,8.10
2013,12,15,14,58,8.00
2013,12,15,14,59,8.00
2013,12,15,15,00,7.90
2013,12,15,15,01,7.90
2013,12,15,15,02,7.90
2013,12,15,15,03,7.80
2013,12,15,15,04,7.80
2013,12,15,15,05,7.80
2013,12,15,15,06,7.80
2013,12,15,15,07,7.70
2013,12,15,15,08,7.70
2013,12,15,15,09,7.70
2013,12,15,15,10,7.60
2013,12,15,15,11,7.60
2013,12,15,15,12,7.50
2013,12,15,15,13,7.50
2013,12,15,15,14,7.40
2013,12,15,15,15,7.40
2013,12,15,15,16,7.40
2013,12,15,15,17,7.30
2013,12,15,15,18,7.30
2013,12,15,15,19,7.30
2013,12,15,15,20,7.20
2013,12,15,15,21,7.20
2013,12,15,15,22,7.10
2013,12,15,15,23,7.10
2013,12,15,15,24,7.10
2013,12,15,15,25,7.00
2013,12,15,15,26,7.00
2013,12,15,15,27,6.90
2013,12,15,15,28,6.90
2013,12,15,15,29,6.90
2013,12,15,15,30,6.80
2013,12,15,15,31,6.80
2013,12,15,15,32,6.80
2013,12,15,15,33,6.80
2013,12,15,15,34,6.70
2013,12,15,15,35,6.70
2013,12,15,15,36,6.70
2013,12,15,15,37,6.60
2013,12,15,15,38,6.60
2013,12,15,15,39,6.60
2013,12,15,15,40,6.60
2013,12,15,15,41,6.60
2013,12,15,15,42,6.60
2013,12,15,15,43,6.50
2013,12,15,15,44,6.50
2013,12,15,15,45,6.40
2013,12,15,15,46,6.40
2013,12,15,15,47,6.40
2013,12,15,15,48,6.30
2013,12,15,15,49,6.30
2013,12,15,15,50,6.30
2013,12,15,15,51,6.30
2013,12,15,15,52,6.30
2013,12,15,15,53,6.20
2013,12,15,15,54,6.20
2013,12,15,15,55,6.20
2013,12,15,15,56,6.20
2013,12,15,15,57,6.20
2013,12,15,15,58,6.20
2013,12,15,15,59,6.10
2013,12,15,16,00,6.10
2013,12,15,16,01,6.10
2013,12,15,16,02,6.10
2013,12,15,16,03,6.00
2013,12,15,16,04,6.00
2013,12,15,16,05,6.00
2013,12,15,16,06,5.90
2013,12,15,16,07,5.90
2013,12,15,16,08,5.90
2013,12,15,16,09,5.80
2013,12,15,16,10,5.80
2013,12,15,16,11,5.70
2013,12,15,16,12,5.70
2013,12,15,16,13,5.70
2013,12,15,16,14,5.70
2013,12,15,16,15,5.70
2013,12,15,16,16,5.70
2013,12,15,16,17,5.70
2013,12,15,16,18,5.60
2013,12,15,16,19,5.60
2013,12,15,16,20,5.60
2013,12,15,16,21,5.50
2013,12,15,16,22,5.50
2013,12,15,16,23,5.40
2013,12,15,16,24,5.40
2013,12,15,16,25,5.30
2013,12,15,16,26,5.30
2013,12,15,16,27,5.30
2013,12,15,16,28,5.30
2013,12,15,16,29,5.20
2013,12,15,16,30,5.20
2013,12,15,16,31,5.10
2013,12,15,16,32,5.10
2013,12,15,16,33,5.10
2013,12,15,16,34,5.10
2013,12,15,16,35,5.10
2013,12,15,16,36,5.10
2013,12,15,16,37,5.10
2013,12,15,16,38,5.00
2013,12,15,16,39,5.00
2013,12,15,16,40,4.90
2013,12,15,16,41,4.90
2013,12,15,16,42,4.90
2013,12,15,16,43,4.80
2013,12,15,16,44,4.80
2013,12,15,16,45,4.70
2013,12,15,16,46,4.70
2013,12,15,16,47,4.70
2013,12,15,16,48,4.70
2013,12,15,16,49,4.70
2013,12,15,16,50,4.60
2013,12,15,16,51,4.70
2013,12,15,16,52,4.60
2013,12,15,16,53,4.60
2013,12,15,16,54,4.60
2013,12,15,16,55,4.60
2013,12,15,16,56,4.60
2013,12,15,16,57,4.50
2013,12,15,16,58,4.50
2013,12,15,16,59,4.50
2013,12,15,17,00,4.40
2013,12,15,17,01,4.40
2013,12,15,17,02,4.40
2013,12,15,17,03,4.30
2013,12,15,17,04,4.30
2013,12,15,17,05,4.30
2013,12,15,17,06,4.30
2013,12,15,17,07,4.30
2013,12,15,17,08,4.30
2013,12,15,17,09,4.30
2013,12,15,17,10,4.30
2013,12,15,17,11,4.30
2013,12,15,17,12,4.30
2013,12,15,17,13,4.20
2013,12,15,17,14,4.20
2013,12,15,17,15,4.20
2013,12,15,17,16,4.20
2013,12,15,17,17,4.10
2013,12,15,17,18,4.10
2013,12,15,17,19,4.00
2013,12,15,17,20,4.00
2013,12,15,17,21,3.90
2013,12,15,17,22,3.80
2013,12,15,17,23,3.80
2013,12,15,17,24,3.80
2013,12,15,17,25,3.70
2013,12,15,17,26,3.70
2013,12,15,17,27,3.70
2013,12,15,17,28,3.80
2013,12,15,17,29,3.80
2013,12,15,17,30,3.70
2013,12,15,17,31,3.70
2013,12,15,17,32,3.70
2013,12,15,17,33,3.70
2013,12,15,17,34,3.60
2013,12,15,17,35,3.60
2013,12,15,17,36,3.60
2013,12,15,17,37,3.60
2013,12,15,17,38,3.60
2013,12,15,17,39,3.60
2013,12,15,17,40,3.60
2013,12,15,17,41,3.60
2013,12,15,17,42,3.60
2013,12,15,17,43,3.50
2013,12,15,17,44,3.50
2013,12,15,17,45,3.50
2013,12,15,17,46,3.40
2013,12,15,17,47,3.50
2013,12,15,17,48,3.50
2013,12,15,17,49,3.60
2013,12,15,17,50,3.60
2013,12,15,17,51,3.60
2013,12,15,17,52,3.60
2013,12,15,17,53,3.70
2013,12,15,17,54,3.70
2013,12,15,17,55,3.70
2013,12,15,17,56,3.60
2013,12,15,17,57,3.60
2013,12,15,17,58,3.60
2013,12,15,17,59,3.60
2013,12,15,18,00,3.60
2013,12,15,18,01,3.50
2013,12,15,18,02,3.50
2013,12,15,18,03,3.40
2013,12,15,18,04,3.40
2013,12,15,18,05,3.30
2013,12,15,18,06,3.30